Regional Weather Roundup
Issued by NWS

Home | Current Version | Previous Version | Graphics & Text | Print | Product List | Glossary On
Versions: 1 2 3 4 5 6 7 8 9 10 11 12 13 14 15 16 17 18 19 20 21 22 23 24 25 26 27 28 29 30 31 32 33 34 35 36 37 38 39 40 41 42 43 44 45 46 47 48 49 50
000
ASUS44 KMEG 222010
RWRTN
TENNESSEE HOURLY STATE WEATHER ROUNDUP
NATIONAL WEATHER SERVICE MEMPHIS TN
300 PM CDT MON MAY 22 2017

TNZ002-004-019-021-049-052-054-088>092-222100-
WEST TENNESSEE

CITY           SKY/WX    TMP DP  RH WIND       PRES   REMARKS
MEMPHIS INTL   CLOUDY    74  55  51 VRB5      30.02F
NWS MEMPHIS      N/A     73 N/A N/A MISG        N/A
JACKSON        MOSUNNY   75  53  46 E5        30.03F
DYERSBURG      SUNNY     74  52  46 E6        30.04F
COVINGTON      SUNNY     73  54  49 NE5       30.03F
UNION CITY     SUNNY     73  50  43 E5        30.04F
BOLIVAR        SUNNY     72  55  56 E5        30.02F
PARIS          SUNNY     72  54  53 VRB6      30.04F HAZE
HUNTINGDON     SUNNY     73  54  49 CALM      30.04F
SELMER         SUNNY     73  55  53 CALM      30.02F
SAVANNAH       SUNNY     75  57  53 VRB7      30.01F
$$

TNZ008-025-027-028-033-062-065-066-222100-
NORTH MIDDLE TENNESSEE

CITY           SKY/WX    TMP DP  RH WIND       PRES   REMARKS
NASHVILLE      PTSUNNY   75  46  35 N3        30.06F
PORTLAND       SUNNY     70  50  49 NE7       30.05F
CLARKSVILLE    CLOUDY    72  45  37 CALM      30.06F
SMYRNA         MOSUNNY   75  53  46 N7        30.05F
COOKEVILLE     SUNNY     73  57  56 N6G12     30.03F
GALLATIN       SUNNY     73  50  43 CALM      30.08F
CROSSVILLE     MOSUNNY   71  52  50 CALM      30.06F
$$

TNZ061-075-076-078-094-096-097-222100-
SOUTH MIDDLE TENNESSEE

CITY           SKY/WX    TMP DP  RH WIND       PRES   REMARKS
FAYETTEVILLE   MOSUNNY   75  59  57 VRB6      30.02F
TULLAHOMA      SUNNY     73  55  53 N6        30.05F
WINCHESTER     SUNNY     75  59  57 VRB6      30.03F
MCMINNVILLE    SUNNY     72  57  60 W3        30.05S
COLUMBIA       SUNNY     75  54  46 VRB5      30.02F
SHELBYVILLE    MOSUNNY   73  57  56 CALM      30.04F
$$

TNZ017-018-042-046-047-222100-
NORTHEAST TENNESSEE

CITY           SKY/WX    TMP DP  RH WIND       PRES   REMARKS
TRI CITIES     CLOUDY    75  62  64 NW7       30.04F
ELIZABETHTON   DRIZZLE   75  63  64 NW9       30.03S
$$

TNZ012-013-036-069-073-074-222100-
CENTRAL EAST TENNESSEE

CITY           SKY/WX    TMP DP  RH WIND       PRES   REMARKS
KNOXVILLE      CLOUDY    74  60  61 CALM      30.02F
OAK RIDGE      CLOUDY    76  58  53 E6        30.04F
GATLINBURG     MOSUNNY   72  63  73 NW5       30.03F
MORRISTOWN     MOSUNNY   72  63  73 NW6       30.04F
JACKSBORO      SUNNY     73  55  53 NE9       30.06F
$$

TNZ083-085-099-222100-
SOUTHEAST TENNESSEE

CITY           SKY/WX    TMP DP  RH WIND       PRES   REMARKS
CHATTANOOGA    PTSUNNY   78  60  53 CALM      30.01F
$$

SKY/WX REPORTED AS FAIR MEANS FEW OR NO CLOUDS BELOW
12 THOUSAND FEET.





USA.gov is the U.S. government's official web portal to all federal, state and local government web resources and services.